If you wish to contribute or participate in the discussions about articles you are invited to join SKYbrary as a registered user

 Actions

Longreach Airport

From SKYbrary Wiki

YLRE
Airport
ICAO: YLRE – IATA: LRE
Summary
Name Longreach Airport
Region Asia and Pacific
Territory "YL" is not in the list (AG, AN, AY, BG, BI, BK, C, CT, DA, DB, ...) of allowed values for the "ICAO Territory" property.
Location , Queensland
Serving Longreach
Elevation 191.11 m
627 ft
627 ft191.11 m
Type medium airport
Coordinates 23° 26' 3.12" S, 144° 16' 48.00" E
Runways
Designator Length Width Surface ROPS
4/22 1936 m6,351.706 ft
30 m98.425 ft
ASP yes/yes
9/27 900 m2,952.756 ft
18 m59.055 ft
GVL /


METAR
Observation YLRE 061700Z AUTO 12007KT 9999 // OVC085 19/08 Q1018
Station Longreach Airport
Date/Time 06 June 2020 17:00:00
Wind direction 120°
Wind speed 07 kts
Lowest cloud amount overcast
Temperature 19°C
Dew point 8°C
Humidity 48%
QNH 1018 hPa
Weather condition n/a